Location: Boiro
(42.6475°N, 8.8834°W)
Time: 17:25:40
(UTC+01:00)

Transit 2A Rocket - Pass Details

Date: 06 December 2021
Orbit: 584 x 918 km, 66.7° (Epoch: 19 January)

Event Time Altitude Azimuth Distance (km) Brightness Sun altitude
Rises 18:00:20 0° 324° (NW) 3,551 8.5 -0.6°
Reaches altitude 10° 18:02:59 10° 319° (NW) 2,587 7.9 -1.0°
Maximum altitude 18:08:45 49° 247° (WSW) 1,111 6.5 -1.9°
Drops below altitude 10° 18:14:09 10° 174° (S) 2,413 7.9 -2.8°
Sets 18:16:33 0° 169° (SSE) 3,291 8.5 -3.2°
